Theta_e
348 347 347 347 347 345 346 347 346 346 347 348 348 344 347 345 345 347 347 347 347 347 349 350 349 348 347 348 348 349 347 345 345 344 343 346 346 348 347 347 347 348 347
350 351 350 349 348 348 346 345 346 348 348 349 349 346 345 345 345 346 344 345 346 347 349 349 349 350 348 349 348 349 350 348 347 345 347 348 348 347 348 348 348 347 347
350 349 348 347 347 345 346 347 349 346 350 351 350 347 346 345 345 345 344 345 347 347 349 349 349 349 350 350 350 349 349 349 349 347 346 347 347 345 345 346 348 347 349
348 348 347 346 346 347 349 350 349 349 351 351 352 351 350 347 346 344 343 344 345 346 349 350 350 350 350 350 351 351 350 349 349 348 347 347 347 347 348 347 347 347 347
347 346 347 348 349 351 351 350 347 352 352 353 353 350 352 350 349 348 346 349 346 345 347 349 349 349 350 351 350 350 350 349 348 347 346 346 346 347 346 346 345 345 343
347 347 349 350 352 352 351 348 350 351 350 351 351 351 351 350 349 349 349 348 347 345 347 347 346 345 347 346 345 344 346 347 347 347 345 345 343 343 343 342 342 341 341
348 349 350 352 352 351 352 350 351 350 350 349 348 347 346 345 343 345 347 347 346 347 345 342 339 338 337 337 337 336 337 337 337 339 342 342 341 341 340 337 336 336 336
348 349 350 351 352 351 352 352 347 348 346 346 345 341 339 338 338 337 338 341 341 344 342 340 340 339 339 339 338 336 335 334 335 335 336 335 336 337 337 335 333 331 330
348 349 350 351 352 351 351 351 346 344 343 342 340 337 337 337 336 332 331 336 339 341 341 339 339 337 334 330 328 326 326 329 332 333 335 337 338 337 333 331 330 331 332
349 349 351 352 352 351 351 349 345 344 344 342 338 338 338 335 328 326 329 336 338 339 337 336 333 330 328 326 323 318 322 327 330 331 332 334 332 331 331 331 330 330 332
349 350 350 350 349 350 348 347 344 342 340 339 338 336 333 329 325 324 328 335 336 337 336 333 331 330 327 319 315 318 324 327 328 329 330 330 331 331 331 331 330 330 328
349 348 346 346 345 345 345 343 342 341 340 337 335 332 331 330 327 324 324 330 334 334 333 332 330 327 323 318 319 320 321 321 322 324 327 328 331 331 330 327 325 325 324
346 342 342 339 342 342 342 343 342 340 338 335 333 331 331 329 326 318 319 323 329 332 331 330 327 323 320 318 320 322 322 323 323 325 327 328 330 328 325 323 323 323 321
341 341 339 337 334 338 337 338 340 338 337 335 333 331 331 328 316 314 316 319 322 326 328 326 323 318 317 319 321 322 322 323 325 325 324 324 323 322 322 322 320 318 324
339 338 335 335 335 334 335 336 337 336 339 336 334 332 330 327 322 319 316 315 319 326 326 320 319 319 320 321 321 321 321 321 321 322 321 321 321 321 321 318 314 316 319
338 337 336 335 334 333 334 334 336 338 337 337 337 334 333 334 330 322 318 316 318 321 320 319 319 320 320 320 320 321 321 320 317 318 321 320 321 319 315 316 314 314 314
339 337 337 336 336 336 335 331 328 330 333 336 337 334 333 332 326 328 320 319 319 320 320 319 318 318 317 317 321 321 321 318 316 314 313 315 315 314 312 313 313 314 313
341 340 340 338 338 337 335 332 331 325 325 328 329 329 329 326 326 329 325 320 319 320 318 313 310 308 309 311 320 322 321 322 316 312 312 313 313 312 313 314 314 313 313
342 341 339 339 338 336 333 331 328 327 327 324 326 327 327 327 327 324 327 327 321 319 317 310 308 307 307 316 319 317 319 321 318 313 312 313 313 313 313 313 313 314 312
341 340 337 337 335 332 331 330 326 326 324 323 322 323 322 319 319 320 322 324 323 320 314 309 308 307 307 314 316 315 313 313 314 313 312 312 312 313 313 312 313 312 311
338 337 336 336 334 334 331 331 330 328 326 324 325 324 321 320 319 319 321 321 320 317 311 310 309 309 308 311 313 315 314 313 313 313 312 312 312 313 312 312 312 311 311
338 335 334 334 333 334 332 332 331 330 328 326 326 325 322 320 316 316 316 316 315 314 313 312 312 312 312 310 313 314 315 314 314 313 313 312 313 313 312 311 311 310 310
334 334 333 333 333 333 332 332 331 330 331 331 330 327 325 324 321 319 320 320 318 317 317 316 315 314 314 311 312 313 315 315 314 314 313 313 314 314 313 312 311 310 310
333 334 334 333 333 333 332 331 331 330 331 330 329 328 327 327 326 325 325 324 323 323 321 319 317 316 316 314 313 313 314 314 314 314 313 313 313 314 314 314 313 310 310
324 323 324 325 327 330 330 330 330 329 330 330 329 330 330 329 327 326 325 324 322 321 321 321 319 318 317 317 316 314 315 314 314 313 313 313 313 313 314 314 314 312 310
322 321 320 319 319 323 327 327 326 325 324 324 326 327 327 327 326 324 322 321 321 320 320 320 320 320 319 319 319 317 317 316 315 313 313 313 314 314 313 313 313 312 311
Wind_Speed
20 21 22 20 20 22 23 20 18 14 14 14 13 14 14 12 13 14 12 10 16 14 12 13 12 12 12 10 9 6 7 10 5 4 10 8 17 12 20 24 23 20 19
19 19 18 18 20 20 19 17 14 13 11 13 13 13 11 8 11 13 10 7 9 15 14 13 12 11 13 12 10 10 8 7 5 5 5 4 5 13 11 12 17 17 15
18 18 18 18 18 18 17 14 13 10 9 11 12 13 14 9 7 8 11 7 5 7 10 14 15 12 12 14 15 13 11 10 9 6 6 6 4 7 6 7 12 13 12
18 19 18 18 18 17 14 12 13 12 10 9 9 11 13 15 13 11 10 8 4 4 5 11 13 12 12 11 11 11 11 12 13 12 8 7 6 5 6 7 9 9 8
21 20 19 17 15 14 13 12 15 12 11 10 10 10 10 11 12 10 11 10 10 6 4 5 7 11 11 10 11 10 11 11 11 11 8 7 7 6 7 7 6 7 7
24 23 20 17 15 14 15 16 14 14 15 14 12 12 12 11 8 6 8 9 11 10 7 5 5 5 9 8 7 6 6 7 9 8 7 5 7 7 7 6 8 6 3
27 24 22 19 18 18 17 17 17 16 18 16 14 13 13 11 11 9 9 10 11 12 13 14 13 10 7 6 5 4 3 4 5 7 7 6 8 9 9 9 8 6 5
29 27 25 22 21 20 21 21 20 19 18 17 16 14 13 11 12 11 11 13 15 16 16 13 11 9 7 6 5 5 5 5 5 6 5 6 7 9 7 6 6 5 5
28 29 27 24 23 23 24 25 23 21 20 20 18 17 14 12 12 11 12 13 16 17 16 13 10 8 6 5 6 7 8 8 6 6 8 6 8 9 7 6 6 6 2
29 30 28 27 27 27 26 25 25 24 24 23 20 18 15 13 11 11 13 16 18 19 17 14 11 8 6 4 5 6 7 9 7 5 5 8 9 8 7 7 6 7 4
19 18 18 20 21 25 25 27 27 24 23 23 20 17 14 12 11 11 13 17 22 22 20 16 13 10 5 4 4 6 6 7 7 7 7 7 7 8 7 6 5 5 5
18 18 21 15 9 3 12 18 23 24 23 22 20 16 14 12 12 12 13 14 18 20 19 16 13 10 6 3 3 5 5 6 7 8 9 11 11 9 8 6 5 5 5
26 27 28 24 22 5 13 17 22 23 21 21 22 22 20 16 15 14 13 14 15 16 14 13 12 10 7 5 6 7 5 6 8 8 8 10 11 10 8 7 6 5 6
29 34 27 21 22 32 30 21 17 23 23 20 21 19 22 20 18 17 16 15 14 13 15 16 12 10 8 7 8 7 5 5 7 9 10 9 10 10 9 8 7 7 5
29 27 23 21 32 27 24 24 33 33 34 30 28 24 24 24 23 19 17 18 17 17 17 14 13 12 11 11 11 10 7 8 8 8 7 9 10 9 9 9 8 8 9
29 26 25 25 26 21 22 24 23 26 32 35 33 29 32 27 22 21 17 16 16 17 17 16 16 16 14 14 16 12 11 11 9 9 11 12 12 11 10 11 9 9 9
18 19 19 20 18 17 19 19 16 16 27 32 27 23 24 22 19 22 22 18 17 14 14 14 13 13 15 17 18 17 18 17 12 13 12 11 12 12 11 12 12 11 9
18 14 12 14 17 15 16 18 21 23 22 21 20 22 22 20 20 18 24 21 19 19 17 15 14 12 14 16 18 20 21 14 17 15 12 14 15 14 13 13 14 13 11
9 10 12 15 17 14 13 15 16 17 21 24 23 22 21 21 20 18 22 27 25 22 19 16 13 13 14 15 15 15 14 18 19 18 15 15 14 15 15 13 13 13 12
6 8 13 12 9 11 11 10 14 17 13 21 23 22 21 20 20 23 24 27 25 23 19 17 14 14 15 16 14 16 17 16 18 19 18 16 14 15 16 14 14 13 14
5 7 9 12 14 11 11 13 11 12 14 17 18 20 20 22 25 25 24 27 26 26 22 19 16 13 13 16 16 16 18 19 18 20 20 19 17 16 18 16 13 14 13
5 8 10 12 10 10 8 12 14 15 12 11 13 14 16 17 18 21 22 25 26 25 23 20 17 16 14 17 19 17 19 22 20 21 23 22 18 17 17 17 15 15 15
4 4 5 5 7 8 12 14 16 17 15 15 17 17 18 21 23 23 23 24 24 24 22 21 20 18 15 14 17 17 18 23 22 23 23 22 20 21 20 20 19 17 16
4 1 0 2 5 9 13 15 17 18 19 19 18 20 20 19 22 24 24 24 24 23 21 21 21 20 18 17 17 16 17 17 18 19 21 21 20 21 23 22 24 25 24
9 8 5 4 3 7 9 9 11 14 17 20 18 15 16 16 16 22 22 21 21 20 21 22 23 21 19 21 20 20 18 16 17 19 22 22 23 24 25 26 26 27 31
12 11 12 13 10 4 2 4 7 7 8 9 11 12 13 16 18 16 14 14 14 14 15 19 20 20 19 22 22 23 25 24 21 21 24 26 26 27 27 27 27 24 28
Wind_Direction
214 218 221 220 222 226 233 232 231 236 243 237 232 239 227 237 225 216 208 198 199 204 206 208 216 222 225 227 228 226 212 209 209 206 201 222 230 231 236 240 240 245 249
196 200 211 212 216 216 219 216 224 244 235 234 232 215 207 206 205 202 191 172 210 211 214 218 223 224 225 220 211 208 210 206 197 207 198 213 208 219 239 227 228 239 248
202 197 194 199 204 208 213 222 225 210 211 223 207 208 209 200 185 171 169 187 238 233 234 240 238 236 225 220 218 215 212 215 211 210 205 186 188 182 190 217 223 230 242
197 194 192 195 202 210 216 221 206 204 212 209 212 211 217 220 217 187 170 169 230 250 267 246 239 234 229 223 212 215 219 220 221 218 210 211 214 211 200 192 199 225 229
196 195 198 201 208 212 212 203 190 205 205 204 201 200 205 209 227 208 202 194 200 227 259 272 230 217 214 207 208 209 213 218 223 220 214 203 204 202 206 198 167 170 164
203 204 206 207 212 214 203 197 199 202 202 195 186 183 184 191 198 191 185 180 186 214 234 169 134 144 151 157 159 167 188 201 203 213 215 206 202 200 180 168 149 151 160
207 212 215 215 213 204 200 202 196 193 191 190 186 183 182 183 181 180 188 186 186 188 188 185 175 164 159 153 165 165 166 197 206 212 203 197 187 191 180 165 165 175 180
208 213 217 219 216 208 199 199 199 195 193 192 192 193 193 190 193 194 196 197 196 196 195 190 187 185 192 201 209 209 216 214 218 219 211 214 209 202 191 188 188 200 217
210 213 216 219 217 209 202 199 200 198 197 199 199 196 197 199 204 206 206 205 198 192 191 191 193 199 210 233 252 249 241 230 232 223 217 213 204 189 198 199 186 174 185
213 215 216 216 217 212 208 206 203 203 204 200 201 202 205 207 202 198 198 196 184 181 183 187 190 195 201 224 256 243 224 206 203 193 180 189 191 203 212 213 213 190 175
208 205 204 207 207 213 209 205 204 204 207 204 202 204 204 205 201 201 195 199 193 186 188 190 192 192 205 263 254 216 205 197 204 202 194 188 193 195 196 192 189 200 195
152 137 117 110 104 224 216 207 207 207 208 203 198 200 201 211 216 212 205 201 202 196 192 195 194 194 194 202 203 192 194 201 203 205 203 199 194 191 191 200 212 216 231
156 150 145 130 123 226 253 216 204 210 202 196 200 207 206 205 208 201 196 195 200 201 199 197 190 195 197 184 176 170 182 204 191 176 176 182 187 191 199 212 215 226 248
167 160 163 179 221 193 204 205 221 207 198 198 201 206 209 201 199 188 184 185 190 195 184 179 183 194 195 185 184 183 180 168 165 174 173 180 188 191 192 196 206 213 206
174 178 197 207 190 205 210 216 213 216 214 201 207 209 202 204 206 204 196 190 189 183 174 180 178 187 190 188 197 179 187 197 187 185 195 186 185 193 204 211 212 198 191
178 191 197 205 212 208 203 215 216 215 214 210 218 227 221 220 212 195 195 191 183 186 184 192 199 201 198 201 204 184 190 209 204 191 204 212 207 198 207 216 212 206 203
196 216 226 228 222 213 208 200 194 201 205 211 214 225 220 209 215 208 196 194 194 198 214 214 215 220 228 223 218 206 206 200 201 214 208 208 206 204 206 206 204 198 190
213 223 219 224 227 223 210 210 206 191 177 182 189 194 202 203 199 202 202 201 207 213 222 230 238 243 237 229 222 222 221 208 208 212 208 205 203 205 205 213 208 206 201
206 207 227 247 240 221 200 203 212 210 183 172 180 184 196 200 204 209 209 211 213 220 227 237 245 250 247 229 224 213 210 210 214 213 209 207 211 214 213 213 213 212 206
215 250 280 253 214 182 168 193 198 185 179 174 184 189 198 205 206 206 206 213 221 227 230 236 243 241 239 226 223 217 214 215 219 217 217 215 219 222 221 217 215 208 211
224 242 240 253 258 247 225 219 207 194 194 193 198 206 207 207 209 212 213 214 219 226 229 235 239 237 231 225 224 224 221 223 223 220 222 224 225 231 229 222 222 225 224
215 229 238 239 232 226 215 223 206 209 206 221 226 223 221 228 227 224 226 226 230 234 239 240 242 241 241 231 224 231 231 227 226 226 227 225 229 232 224 223 229 228 222
230 235 238 241 244 233 223 225 226 225 214 205 220 218 213 217 226 233 238 239 239 240 242 244 244 243 241 233 227 238 237 231 234 234 229 229 229 226 228 229 232 227 226
91 58 288 224 225 227 238 233 233 223 224 225 222 220 216 229 238 241 245 247 247 247 245 242 238 238 238 239 234 242 243 243 243 248 238 237 236 233 233 234 236 232 231
72 60 41 15 297 260 253 241 237 233 220 218 220 233 238 239 249 260 263 261 260 256 249 241 236 237 238 243 242 241 244 246 245 242 239 243 245 243 240 241 246 244 236
48 41 42 43 39 3 268 226 216 215 233 240 241 243 245 248 255 263 262 250 245 247 247 238 233 233 237 247 251 256 254 248 247 247 248 249 250 250 246 245 248 242 237